Content
SEND FEEDBACK

Daily
Averages
Monthly
Summary
United States of America

WIBAUX, MONTANA


Home > North America > United States > Montana
Elevation: 2732 feet     Latitude: 46 59N     Longitude: 104 09W

WEATHER
 
SELECT A DAY
Number of Records: 86,046;   Date Range: 11/18/10 - 8/27/14
 
SHARE

PRINT THIS DATA

[ ← Previous Day ]
WEATHER ALMANAC - JANUARY 31, 2013
[ Next Day → ]
[ °C ]   °F
Weather ElementAverageHighLow
Temperature-7.9 °F14 °F (11:35 pm)-20.2 °F (5:55 am)
Dewpoint-14.9 °F6.8 °F (11:35 pm)-25.6 °F (5:55 am)
Humidity71.8 %85 % (10:55 pm)59 % (12:55 pm)
Barometer30.15 in30.26 in (8:35 am)29.97 in (11:35 pm)
Wind Speed12.3 mph26.5 mph (12:55 am)
Wind Gust32.2 mph (12:55 am)
Weather ElementAverage
Visibility9.8 mi
Wind DirectionWSW (253.6 °)

Weather ElementTotal
Precipitation---
Heating Degree Days68.1 (Base 65)
Averaged from 67 records on January 31, 2013
WEATHER CONDITIONS BREAKOUT
WIND DIRECTION BREAKOUT
WEATHER BY HOUR - JANUARY 31, 2013
[ °C ]   °F
Local TimeTemperatureDewpointHumidityBarometerVisibilityWind DirectionWind SpeedGust SpeedPrecipitationEventsConditions
12:35 AM-9.4 °F-16.6 °F71 %30.06 in8.0 miNNW (340°)24.2 mph27.6 mphOvercast
12:55 AM-11.2 °F-18.4 °F70 %30.07 in5.0 miNNW (330°)26.5 mph32.2 mphSnowLight Snow
1:15 AM-11.2 °F-18.4 °F70 %30.08 in5.0 miNNW (330°)23.0 mph31.1 mphSnowLight Snow
1:35 AM-13.0 °F-18.4 °F77 %30.09 in10.0 miNNW (340°)17.3 mphOvercast
1:55 AM-13.0 °F-18.4 °F77 %30.10 in9.0 miNNW (330°)18.4 mphOvercast
2:15 AM-13.0 °F-20.2 °F70 %30.11 in10.0 miNNW (330°)17.3 mphMostly Cloudy
2:35 AM-13.0 °F-20.2 °F70 %30.13 in10.0 miNNW (330°)17.3 mphScattered Clouds
2:55 AM-13.0 °F-20.2 °F70 %30.14 in9.0 miNW (320°)19.6 mph26.5 mphMostly Cloudy
3:15 AM-14.8 °F-20.2 °F77 %30.15 in10.0 miNW (320°)18.4 mph24.2 mphScattered Clouds
3:35 AM-14.8 °F-22.0 °F70 %30.15 in10.0 miNNW (330°)16.1 mphScattered Clouds
3:55 AM-16.6 °F-22.0 °F76 %30.15 in10.0 miNNW (340°)17.3 mph21.9 mphMostly Cloudy
4:15 AM-16.6 °F-22.0 °F76 %30.16 in10.0 miNNW (330°)15.0 mphMostly Cloudy
4:35 AM-16.6 °F-22.0 °F76 %30.17 in10.0 miNNW (330°)10.4 mphClear
5:15 AM-18.4 °F-22.0 °F84 %30.20 in10.0 miNW (310°)12.7 mphOvercast
5:35 AM-18.4 °F-23.8 °F76 %30.20 in10.0 miNW (310°)6.9 mphOvercast
5:55 AM-20.2 °F-25.6 °F76 %30.21 in10.0 miNW (310°)9.2 mphOvercast
6:15 AM-20.2 °F-25.6 °F76 %30.21 in10.0 miNW (310°)9.2 mphOvercast
6:35 AM-20.2 °F-25.6 °F76 %30.21 in10.0 miWNW (290°)9.2 mphScattered Clouds
6:55 AM-20.2 °F-25.6 °F76 %30.22 in10.0 miWNW (300°)10.4 mphMostly Cloudy
7:15 AM-20.2 °F-25.6 °F76 %30.22 in10.0 miWNW (300°)11.5 mphMostly Cloudy
7:35 AM-20.2 °F-25.6 °F76 %30.24 in10.0 miWNW (290°)12.7 mphPartly Cloudy
7:55 AM-18.4 °F-25.6 °F70 %30.25 in10.0 miWest (270°)10.4 mphMostly Cloudy
8:15 AM-18.4 °F-25.6 °F70 %30.25 in10.0 miWNW (290°)13.8 mphScattered Clouds
8:35 AM-18.4 °F-25.6 °F70 %30.26 in10.0 miWNW (290°)13.8 mphPartly Cloudy
8:55 AM-16.6 °F-23.8 °F70 %30.26 in10.0 miWNW (290°)13.8 mphPartly Cloudy
9:15 AM-16.6 °F-23.8 °F70 %30.25 in10.0 miWest (280°)11.5 mphPartly Cloudy
9:35 AM-16.6 °F-22.0 °F76 %30.26 in10.0 miWest (270°)12.7 mphPartly Cloudy
9:55 AM-14.8 °F-22.0 °F70 %30.26 in10.0 miWest (260°)12.7 mphPartly Cloudy
10:15 AM-14.8 °F-22.0 °F70 %30.26 in10.0 miWest (260°)12.7 mphClear
10:35 AM-13.0 °F-22.0 °F64 %30.26 in10.0 miWest (270°)15.0 mphPartly Cloudy
10:55 AM-13.0 °F-20.2 °F70 %30.25 in10.0 miWest (270°)15.0 mphClear
11:15 AM-11.2 °F-20.2 °F64 %30.25 in10.0 miWest (270°)12.7 mphClear
11:35 AM-11.2 °F-20.2 °F64 %30.25 in10.0 miWest (260°)15.0 mphClear
11:55 AM-11.2 °F-18.4 °F70 %30.24 in10.0 miWest (260°)15.0 mphClear
12:15 PM-9.4 °F-18.4 °F65 %30.23 in10.0 miWest (270°)15.0 mphPartly Cloudy
12:35 PM-9.4 °F-18.4 °F65 %30.22 in10.0 miWest (270°)12.7 mphPartly Cloudy
12:55 PM-7.6 °F-18.4 °F59 %30.21 in10.0 miWest (270°)12.7 mph18.4 mphPartly Cloudy
1:15 PM-7.6 °F-16.6 °F65 %30.20 in10.0 miWest (260°)10.4 mphPartly Cloudy
1:35 PM-7.6 °F-16.6 °F65 %30.19 in10.0 miWest (260°)10.4 mphPartly Cloudy
1:55 PM-7.6 °F-16.6 °F65 %30.18 in10.0 miWest (260°)11.5 mphPartly Cloudy
2:15 PM-5.8 °F-14.8 °F65 %30.16 in10.0 miWSW (250°)11.5 mphClear
2:35 PM-5.8 °F-14.8 °F65 %30.16 in10.0 miWSW (250°)11.5 mphClear
2:55 PM-4.0 °F-13.0 °F65 %30.16 in10.0 miWest (260°)16.1 mph19.6 mphClear
3:15 PM-5.8 °F-13.0 °F71 %30.16 in10.0 miWest (260°)9.2 mphMostly Cloudy
3:35 PM-4.0 °F-13.0 °F65 %30.16 in10.0 miWSW (250°)11.5 mphOvercast
3:55 PM-4.0 °F-13.0 °F65 %30.16 in10.0 miWSW (250°)10.4 mphOvercast
4:15 PM-4.0 °F-11.2 °F71 %30.15 in10.0 miWSW (250°)11.5 mphOvercast
4:35 PM-2.2 °F-11.2 °F66 %30.14 in10.0 miNorthOvercast
4:55 PM-2.2 °F-11.2 °F66 %30.13 in10.0 miWSW (250°)9.2 mphOvercast
5:15 PM-2.2 °F-9.4 °F71 %30.13 in10.0 miNorthOvercast
5:35 PM-2.2 °F-9.4 °F71 %30.12 in10.0 miNorthOvercast
6:15 PM-0.4 °F-7.6 °F72 %30.09 in10.0 miSSW (200°)5.8 mphOvercast
6:35 PM-0.4 °F-7.6 °F72 %30.09 in10.0 miSW (220°)6.9 mphOvercast
6:55 PM1.4 °F-5.8 °F72 %30.08 in10.0 miSW (220°)12.7 mphOvercast
7:15 PM1.4 °F-4.0 °F78 %30.07 in10.0 miSSW (210°)9.2 mphOvercast
7:35 PM3.2 °F-4.0 °F72 %30.06 in10.0 miSSW (210°)9.2 mphOvercast
7:55 PM5.0 °F-2.2 °F72 %30.06 in10.0 miSSW (200°)8.1 mphOvercast
8:15 PM5.0 °F-2.2 °F72 %30.05 in10.0 miSSW (200°)8.1 mphOvercast
8:35 PM5.0 °F-0.4 °F78 %30.04 in10.0 miSouth (190°)6.9 mphOvercast
9:15 PM5.0 °F-0.4 °F78 %30.03 in10.0 miSouth (190°)6.9 mphOvercast
9:35 PM6.8 °F1.4 °F79 %30.03 in10.0 miSouth (190°)5.8 mphOvercast
9:55 PM6.8 °F1.4 °F79 %30.02 in10.0 miSouth (180°)8.1 mphOvercast
10:15 PM6.8 °F1.4 °F79 %30.01 in10.0 miSouth (180°)9.2 mphOvercast
10:35 PM8.6 °F3.2 °F79 %30.00 in10.0 miSouth (180°)6.9 mphOvercast
10:55 PM8.6 °F5.0 °F85 %29.99 in10.0 miSouth (170°)8.1 mphOvercast
11:15 PM10.4 °F5.0 °F79 %29.99 in10.0 miSouth (180°)9.2 mphOvercast
11:35 PM14.0 °F6.8 °F73 %29.97 in10.0 miSSW (200°)8.1 mphOvercast
Hourly data recorded from K20U, located miles away from Wibaux, Montana







STORIES FROM OUR PARTNERS